DW5920 Weather Reports


time (UTC)temp
C
wind
direction
speed
KPH
gust
KPH
rain 1hr
cm
rain 24hr
cm
rain mn
cm
humidity
%
barometer
mb
20260508142703 25 185 3.2 12.9 0.00 0.00 0.00 38 1008.3
20260508141803 24 227 3.2 16.1 0.00 0.00 0.00 37 1008.4
20260508140903 23 224 6.4 14.5 0.00 0.00 0.00 38 1008.5
20260508140003 23 238 6.4 16.1 0.00 0.00 0.00 40 1008.7
20260508135403 23 236 6.4 16.1 0.00 0.00 0.00 39 1008.8
20260508134503 23 236 4.8 12.9 0.00 0.00 0.00 39 1008.8
20260508133817 23 193 4.8 14.5 0.00 0.00 0.00 39 1008.9
20260508132703 23 145 3.2 8.0 0.00 0.00 0.00 41 1008.8
20260508131803 23 214 1.6 11.3 0.00 0.00 0.00 41 1009.1
20260508130903 23 195 4.8 17.7 0.00 0.00 0.00 41 1009.2
20260508130217 23 196 3.2 12.9 0.00 0.00 0.00 41 1009.3
20260508125403 22 136 4.8 16.1 0.00 0.00 0.00 42 1009.4
20260508124503 23 135 4.8 17.7 0.00 0.00 0.00 42 1009.5
20260508123603 23 196 1.6 11.3 0.00 0.00 0.00 43 1009.5
20260508122703 23 174 3.2 12.9 0.00 0.00 0.00 42 1009.6
20260508121803 22 159 4.8 12.9 0.00 0.00 0.00 44 1009.8
20260508120903 22 169 4.8 14.5 0.00 0.00 0.00 44 1009.8
20260508120217 22 161 3.2 9.7 0.00 0.00 0.00 44 1009.8
20260508115403 22 173 4.8 14.5 0.00 0.00 0.00 43 1009.9
20260508114503 21 226 3.2 11.3 0.00 0.00 0.00 44 1009.9
20260508113603 22 232 4.8 12.9 0.00 0.00 0.00 43 1009.8
20260508112703 21 226 6.4 12.9 0.00 0.00 0.00 45 1009.9
20260508111803 21 272 4.8 14.5 0.00 0.00 0.00 45 1010.1
20260508110903 21 256 3.2 14.5 0.00 0.00 0.00 44 1010.1
20260508110003 21 229 0.0 6.4 0.00 0.00 0.00 46 1010.2
20260508105403 21 214 1.6 8.0 0.00 0.00 0.00 45 1010.2
20260508104503 21 196 3.2 12.9 0.00 0.00 0.00 45 1010.3
20260508103603 21 226 3.2 9.7 0.00 0.00 0.00 47 1010.3
20260508102703 21 207 3.2 12.9 0.00 0.00 0.00 47 1010.4
20260508101803 20 246 3.2 14.5 0.00 0.00 0.00 48 1010.4
20260508100903 20 224 1.6 9.7 0.00 0.00 0.00 50 1010.5
20260508100003 20 222 3.2 11.3 0.00 0.00 0.00 50 1010.6
20260508095403 20 248 4.8 12.9 0.00 0.00 0.00 52 1010.6
20260508094503 19 259 4.8 11.3 0.00 0.00 0.00 52 1010.8
20260508093603 20 241 6.4 16.1 0.00 0.00 0.00 54 1010.8
20260508092703 19 237 4.8 14.5 0.00 0.00 0.00 56 1010.9
20260508091803 19 251 8.0 22.5 0.00 0.00 0.00 53 1010.9
20260508090903 19 234 6.4 14.5 0.00 0.00 0.00 55 1010.8
20260508090003 19 234 6.4 14.5 0.00 0.00 0.00 57 1010.8
20260508085403 18 243 6.4 17.7 0.00 0.00 0.00 58 1010.8
20260508084503 18 236 4.8 19.3 0.00 0.00 0.00 57 1010.7
20260508083603 18 229 1.6 8.0 0.00 0.00 0.00 66 1010.7
20260508082703 18 250 3.2 12.9 0.00 0.00 0.00 67 1010.8
20260508082020 18 237 1.6 11.3 0.00 0.00 0.00 68 1010.7
20260508080903 18 184 0.0 4.8 0.00 0.00 0.00 70 1010.7
20260508080003 17 268 0.0 3.2 0.00 0.00 0.00 71 1010.7
20260508075403 17 0 0.0 0.0 0.00 0.00 0.00 72 1010.6
20260508074503 17 102 0.0 1.6 0.00 0.00 0.00 73 1010.5
20260508073603 17 116 1.6 4.8 0.00 0.00 0.00 73 1010.5
20260508072703 16 115 0.0 8.0 0.00 0.00 0.00 74 1010.3
20260508071803 16 92 0.0 4.8 0.00 0.00 0.00 76 1010.3
20260508070903 16 99 1.6 4.8 0.00 0.00 0.00 77 1010.4
20260508070004 16 99 0.0 4.8 0.00 0.00 0.00 77 1010.4
20260508065403 16 117 0.0 3.2 0.00 0.00 0.00 76 1010.4
20260508064719 15 0 0.0 0.0 0.00 0.00 0.00 79 1010.3
20260508063603 15 0 0.0 0.0 0.00 0.00 0.00 82 1010.3
20260508062703 13 0 0.0 0.0 0.00 0.00 0.00 85 1010.3
20260508061803 13 79 0.0 1.6 0.00 0.00 0.00 86 1010.1
20260508060903 13 77 0.0 1.6 0.00 0.00 0.00 85 1010.1
20260508060003 13 0 0.0 0.0 0.00 0.00 0.00 87 1010.1
20260508055403 12 0 0.0 0.0 0.00 0.00 0.00 87 1010.0
20260508054503 12 0 0.0 0.0 0.00 0.00 0.00 88 1010.1
20260508053603 12 0 0.0 0.0 0.00 0.00 0.00 88 1009.9
20260508052703 12 0 0.0 0.0 0.00 0.00 0.00 87 1009.7
20260508051803 12 0 0.0 0.0 0.00 0.00 0.00 87 1009.3
20260508050903 12 0 0.0 0.0 0.00 0.00 0.00 87 1009.5
20260508050003 12 0 0.0 0.0 0.00 0.00 0.00 86 1009.4
20260508045403 13 0 0.0 0.0 0.00 0.00 0.00 86 1009.3
20260508044503 13 0 0.0 0.0 0.00 0.00 0.00 85 1009.1
20260508043603 13 0 0.0 0.0 0.00 0.00 0.00 84 1008.9
20260508042920 13 0 0.0 0.0 0.00 0.00 0.00 84 1008.6
20260508041803 14 0 0.0 0.0 0.00 0.00 0.00 81 1008.9
20260508040903 14 0 0.0 0.0 0.00 0.00 0.00 81 1009.0
20260508040003 14 0 0.0 0.0 0.00 0.00 0.00 80 1009.2
20260508035403 14 0 0.0 0.0 0.00 0.00 0.00 81 1009.0
20260508034503 15 0 0.0 0.0 0.00 0.00 0.00 80 1008.9
20260508033603 15 125 0.0 3.2 0.00 0.00 0.00 79 1008.9
20260508032703 15 128 0.0 4.8 0.00 0.00 0.00 79 1009.1
20260508031803 15 150 0.0 4.8 0.00 0.00 0.00 79 1008.9
20260508030903 15 150 0.0 4.8 0.00 0.00 0.00 79 1009.4
20260508030004 15 157 0.0 6.4 0.00 0.00 0.00 79 1009.2
20260508025403 15 167 0.0 4.8 0.00 0.00 0.00 79 1009.3
20260508024717 15 144 0.0 3.2 0.00 0.00 0.00 79 1009.3
20260508023603 15 169 0.0 6.4 0.00 0.00 0.00 79 1009.3
20260508022703 15 170 1.6 8.0 0.00 0.00 0.00 79 1009.3
20260508022019 15 166 1.6 8.0 0.00 0.00 0.00 79 1009.4
20260508020903 15 159 1.6 4.8 0.00 0.00 0.00 79 1009.3
20260508020003 15 155 1.6 6.4 0.00 0.00 0.00 78 1009.3
20260508015403 15 167 1.6 8.0 0.00 0.00 0.00 79 1009.3
20260508014718 15 174 1.6 8.0 0.00 0.00 0.00 79 1009.3
20260508013603 15 179 1.6 4.8 0.00 0.00 0.00 79 1009.5
20260508012703 15 203 0.0 6.4 0.00 0.00 0.00 79 1009.5
20260508011803 15 197 0.0 4.8 0.00 0.00 0.00 79 1009.5
20260508010903 15 159 0.0 6.4 0.00 0.00 0.00 79 1009.5
20260508010003 15 182 0.0 6.4 0.00 0.00 0.00 79 1009.7
20260508005403 15 178 0.0 6.4 0.00 0.00 0.00 78 1009.7
20260508004503 15 181 0.0 6.4 0.00 0.00 0.00 77 1009.8
20260508003603 15 173 1.6 4.8 0.00 0.00 0.00 77 1009.8
20260508002703 15 172 1.6 6.4 0.00 0.00 0.00 77 1009.7
20260508001803 15 156 0.0 4.8 0.00 0.00 0.00 76 1009.7
20260508000903 16 161 1.6 6.4 0.00 0.00 0.00 75 1009.8
20260508000003 16 180 1.6 4.8 0.00 0.00 0.00 75 1009.9
20260507235403 16 212 0.0 3.2 0.00 0.00 0.00 75 1009.9
20260507234503 16 197 0.0 3.2 0.00 0.00 0.00 74 1009.9
20260507233603 16 0 0.0 0.0 0.00 0.00 0.00 73 1009.7
20260507232918 16 0 0.0 0.0 0.00 0.00 0.00 73 1009.8
20260507231803 16 160 0.0 6.4 0.00 0.00 0.00 73 1009.9
20260507230903 16 137 0.0 1.6 0.00 0.00 0.00 72 1010.0
20260507230003 16 142 0.0 4.8 0.00 0.00 0.00 70 1009.9
20260507225403 16 174 0.0 3.2 0.00 0.00 0.00 69 1010.2
20260507224720 16 183 0.0 3.2 0.00 0.00 0.00 67 1010.3
20260507223603 16 190 0.0 3.2 0.00 0.00 0.00 65 1010.4
20260507222703 16 177 0.0 4.8 0.00 0.00 0.00 66 1010.4
20260507222016 16 176 0.0 3.2 0.00 0.00 0.00 66 1010.5
20260507220903 16 186 0.0 3.2 0.00 0.00 0.00 66 1010.3
20260507220004 16 204 0.0 3.2 0.00 0.00 0.00 65 1010.2
20260507215403 16 206 0.0 3.2 0.00 0.00 0.00 65 1010.2
20260507214720 16 0 0.0 0.0 0.00 0.00 0.00 65 1010.3
20260507213603 17 235 0.0 1.6 0.00 0.00 0.00 64 1010.3
20260507212703 17 0 0.0 0.0 0.00 0.00 0.00 63 1010.2
20260507211803 17 0 0.0 0.0 0.00 0.00 0.00 64 1010.1
20260507211120 17 286 0.0 4.8 0.00 0.00 0.00 63 1010.1
20260507210003 17 278 0.0 1.6 0.00 0.00 0.00 63 1009.9
20260507205403 17 0 0.0 0.0 0.00 0.00 0.00 62 1009.9
20260507204503 17 283 0.0 1.6 0.00 0.00 0.00 62 1009.9
20260507203603 17 283 0.0 3.2 0.00 0.00 0.00 61 1009.9
20260507202703 17 262 0.0 3.2 0.00 0.00 0.00 60 1009.9
20260507202018 17 262 0.0 3.2 0.00 0.00 0.00 59 1009.9
20260507200903 18 263 0.0 3.2 0.00 0.00 0.00 59 1009.8
20260507200003 18 255 0.0 8.0 0.00 0.00 0.00 59 1009.7
20260507195403 18 272 0.0 8.0 0.00 0.00 0.00 59 1009.8
20260507194503 18 251 1.6 11.3 0.00 0.00 0.00 57 1009.7
20260507193819 18 251 1.6 11.3 0.00 0.00 0.00 56 1009.6
20260507192703 18 260 3.2 12.9 0.00 0.00 0.00 56 1009.4
20260507192018 19 252 3.2 12.9 0.00 0.00 0.00 55 1009.3
20260507190903 19 252 3.2 12.9 0.00 0.00 0.00 55 1009.1
20260507190218 20 247 4.8 19.3 0.00 0.00 0.00 54 1009.0
20260507185403 20 250 8.0 19.3 0.00 0.00 0.00 52 1008.8
20260507184503 20 251 8.0 22.5 0.00 0.00 0.00 51 1008.6
20260507183603 20 251 9.7 22.5 0.00 0.00 0.00 50 1008.5
20260507182703 21 255 8.0 20.9 0.00 0.00 0.00 50 1008.4
20260507181803 21 254 8.0 19.3 0.00 0.00 0.00 50 1008.2
20260507180903 21 259 6.4 19.3 0.00 0.00 0.00 50 1008.2
20260507180004 21 251 6.4 20.9 0.00 0.00 0.00 48 1008.1
20260507175403 22 250 6.4 17.7 0.00 0.00 0.00 47 1008.0
20260507174503 22 256 6.4 20.9 0.00 0.00 0.00 46 1007.8
20260507173603 22 254 9.7 22.5 0.00 0.00 0.00 45 1007.7
20260507172703 22 239 9.7 20.9 0.00 0.00 0.00 44 1007.6
20260507171803 22 243 6.4 20.9 0.00 0.00 0.00 44 1007.6
20260507170903 22 245 8.0 20.9 0.00 0.00 0.00 43 1007.5
20260507170003 23 244 8.0 19.3 0.00 0.00 0.00 43 1007.4
20260507165403 23 245 8.0 19.3 0.00 0.00 0.00 43 1007.4
20260507164503 23 253 6.4 17.7 0.00 0.00 0.00 42 1007.3
20260507163821 23 229 6.4 17.7 0.00 0.00 0.00 42 1007.2
20260507162703 24 237 6.4 17.7 0.00 0.00 0.00 39 1007.2
20260507161803 24 242 4.8 16.1 0.00 0.00 0.00 39 1007.1
20260507160903 24 223 3.2 16.1 0.00 0.00 0.00 37 1007.2
20260507160003 24 222 4.8 19.3 0.00 0.00 0.00 40 1007.0
20260507155616 24 219 6.4 17.7 0.00 0.00 0.00 38 1007.1
20260507154503 24 212 4.8 17.7 0.00 0.00 0.00 38 1007.2
20260507153603 24 212 4.8 20.9 0.00 0.00 0.00 37 1007.1
20260507152703 25 206 3.2 14.5 0.00 0.00 0.00 37 1007.1
20260507151803 24 214 1.6 14.5 0.00 0.00 0.00 37 1007.2
20260507150903 24 211 3.2 12.9 0.00 0.00 0.00 39 1007.3
20260507150221 24 231 6.4 14.5 0.00 0.00 0.00 40 1007.4
20260507145403 24 213 6.4 16.1 0.00 0.00 0.00 41 1007.5
20260507144719 24 224 6.4 14.5 0.00 0.00 0.00 41 1007.4
20260507143603 23 211 6.4 17.7 0.00 0.00 0.00 39 1007.5